Location: *
(53.9002°N, 27.5624°E)
Time: 20:58:03
(UTC+00:00)

FengYun 1-2 T - Pass Details

Date: 12 November 2019
Orbit: 846 x 882 km, 98.7° (Epoch: 07 December)

Event Time Altitude Azimuth Distance (km) Brightness Sun altitude
Rises 15:47:35 0° 154° (SSE) 3,427 7.2 -13.3°
Reaches altitude 10° 15:49:58 10° 152° (SSE) 2,489 6.5 -13.7°
Maximum altitude 15:55:27 71° 70° (ENE) 906 4.1 -14.5°
Drops below altitude 10° 16:00:57 10° 347° (NNW) 2,488 6.7 -15.3°
Sets 16:03:19 0° 346° (NNW) 3,425 7.4 -15.6°
